Вернуться в каталог

COSMOS 1275 DEB

АктивенPO
NORAD 39945·DEBRIS·🇷🇺 Russia

Запущен Jun 4, 1981 с Plesetsk Cosmodrome

Loading…

Ближайшие Пролёты (ближайшие 24 часа)

TLE

СвежийSource: Space-Track

Эпоха: Sep 13, 2026, 16:19 UTC

1 39945U 81053NF  26256.67991894  .00000246  00000-0  21827-3 0  9996
2 39945  82.9543 142.7285 0040318 105.5007 283.9637 13.80552116617976

Отслеживайте COSMOS 1275 DEB в реальном времени с AllMySat

Download on the App Store